CAPE
1146 1110 1142 1138 1152 1047 798 646 292 173 94 93 143 59 84 168 99 113 76 115 105 71 34 59 81 71 96 73 64 62 48 22 7
1153 1060 816 1099 1188 1132 842 653 278 151 65 49 25 26 48 130 91 51 56 78 70 69 73 61 57 52 67 70 72 69 57 25 20
1205 925 950 1091 1152 1069 884 668 318 65 22 0 0 0 8 71 27 33 44 64 67 64 65 70 52 59 36 57 63 57 52 35 20
1158 1121 1052 1182 1126 934 902 677 248 61 12 0 0 0 0 34 25 24 40 46 39 53 42 44 53 57 49 47 31 34 29 24 22
1309 1074 1242 1105 1118 1012 907 601 221 51 0 0 0 0 0 29 30 19 34 46 18 19 20 25 31 33 40 37 38 39 29 20 11
1201 1034 1099 1253 1155 969 856 556 205 13 0 0 0 0 4 18 41 40 27 35 29 22 6 5 7 5 9 10 11 11 8 10 7
803 927 968 1184 1023 910 769 484 120 0 0 0 0 0 0 10 42 27 12 11 10 19 16 13 8 7 5 10 9 13 11 11 10
725 731 684 993 711 773 687 354 59 27 3 0 0 0 1 12 26 21 9 20 12 15 10 15 16 16 10 14 15 10 10 8 6
574 544 539 866 756 778 551 386 106 1 0 0 0 0 0 7 14 12 16 15 12 31 37 35 18 18 3 10 12 10 10 10 6
738 633 676 815 718 746 599 283 112 0 0 0 0 0 1 7 4 15 22 41 52 44 41 33 19 10 6 13 8 6 8 6 6
641 567 607 481 776 713 559 332 40 0 0 0 0 0 3 10 7 21 22 34 63 51 37 22 17 7 15 13 11 11 9 8 6
541 342 328 262 540 491 381 188 0 0 0 0 0 0 6 18 15 32 43 28 47 52 42 23 16 10 13 20 13 6 3 9 7
538 453 380 523 524 383 283 111 1 0 0 0 0 1 16 7 30 61 61 43 39 43 46 33 16 19 10 9 10 2 8 1 9
312 357 355 268 291 308 230 52 4 0 0 0 0 0 10 19 29 45 35 41 43 38 44 34 28 27 21 11 14 16 13 10 9
259 191 209 178 258 206 231 94 13 1 0 0 0 13 19 34 20 23 25 38 48 35 28 29 22 25 18 9 15 14 8 4 4
194 267 235 82 92 104 114 8 2 2 1 1 2 0 44 43 23 26 20 32 50 24 39 22 25 21 19 16 12 11 6 2 1
246 312 325 245 166 108 29 1 2 2 0 1 12 30 43 46 41 47 58 57 55 43 35 37 40 34 27 13 0 1 1 0 0
139 196 301 290 200 100 10 2 2 2 2 2 0 13 1 39 13 59 45 56 37 30 29 35 28 27 26 0 0 0 0 0 0
46 147 295 236 162 67 67 37 0 2 3 3 0 0 0 6 2 35 52 41 27 21 20 22 9 4 9 1 0 0 0 0 0
19 107 168 108 93 77 61 57 15 1 2 1 0 0 11 21 0 0 11 21 15 16 15 3 1 0 0 0 0 0 0 0 0
CIN
-0 -0 -0 -0 -0 -0 -0 -0 -3 -13 -45 -44 -27 -93 -84 -33 -56 -67 -85 -55 -67 -0 -0 -0 -0 -0 -0 -0 -0 -0 -0 -0 -0
-5 -2 -7 -2 -0 -0 -0 -0 -9 -25 -78 -91 -154 -176 -138 -63 -93 -46 -0 -1 -0 -0 -0 -0 -0 -0 -0 -0 -0 -0 -0 -0 -0
-1 -13 -5 -3 -0 -0 -0 -0 -8 -67 -133 -0 -0 -0 -1 -138 -1 -0 -0 -3 -0 -0 -0 -0 -0 -0 -1 -0 -0 -0 -0 -0 -0
-3 -5 -2 -1 -0 -0 -0 -0 -14 -70 -140 -0 -0 -0 -0 -0 -3 -0 -0 -2 -0 -0 -0 -0 -0 -0 -0 -0 -0 -0 -0 -0 -0
-1 -4 -0 -1 -0 -0 -0 -0 -10 -63 -0 -0 -0 -0 -0 -1 -1 -3 -1 -0 -0 -0 -0 -0 -0 -0 -0 -0 -0 -0 -0 -0 -0
-0 -1 -3 -0 -0 -0 -0 -0 -5 -13 -0 -0 -0 -0 -0 -0 -2 -0 -1 -0 -0 -0 -0 -0 -0 -1 -4 -2 -0 -0 -0 -0 -0
-1 -1 -2 -0 -0 -0 -0 -0 -8 -0 -0 -0 -0 -0 -0 -0 -0 -0 -2 -0 -0 -2 -4 -4 -1 -1 -0 -0 -0 -0 -0 -1 -0
-0 -0 -0 -0 -1 -0 -0 -0 -1 -4 -0 -0 -0 -0 -1 -0 -1 -4 -4 -1 -1 -1 -0 -1 -0 -2 -0 -0 -1 -0 -0 -0 -1
-1 -0 -0 -0 -0 -0 -0 -1 -1 -0 -0 -0 -0 -0 -0 -1 -1 -2 -4 -2 -1 -0 -0 -1 -1 -1 -1 -0 -0 -0 -0 -0 -1
-0 -0 -0 -0 -0 -0 -0 -1 -1 -0 -0 -0 -0 -0 -1 -1 -2 -1 -3 -2 -0 -0 -0 -0 -0 -1 -0 -1 -1 -0 -0 -1 -1
-0 -0 -4 -3 -0 -0 -0 -1 -20 -0 -0 -0 -0 -0 -1 -0 -1 -1 -1 -2 -1 -0 -0 -0 -0 -1 -0 -1 -0 -0 -0 -1 -1
-0 -14 -1 -3 -1 -0 -2 -10 -0 -0 -0 -0 -0 -0 -2 -1 -1 -0 -0 -1 -4 -2 -1 -0 -0 -1 -0 -0 -0 -1 -0 -0 -1
-0 -8 -0 -0 -0 -11 -14 -15 -0 -0 -0 -0 -0 -1 -1 -1 -1 -1 -1 -2 -3 -7 -5 -2 -1 -0 -0 -2 -0 -0 -0 -0 -0
-6 -1 -0 -5 -5 -9 -22 -37 -0 -0 -0 -0 -1 -3 -4 -6 -10 -6 -11 -10 -5 -4 -8 -8 -4 -2 -0 -1 -0 -0 -0 -0 -0
-9 -11 -8 -12 -1 -5 -6 -13 -24 -0 -0 -0 -11 -11 -7 -15 -9 -10 -10 -12 -9 -4 -2 -8 -3 -1 -1 -0 -0 -0 -1 -0 -0
-6 -0 -1 -24 -12 -4 -2 -50 -0 -0 -0 -0 -4 -0 -3 -9 -9 -10 -13 -4 -0 -0 -0 -1 -1 -4 -3 -0 -1 -0 -0 -0 -0
-1 -0 -0 -3 -6 -5 -33 -4 -0 -0 -0 -0 -6 -0 -4 -8 -10 -6 -2 -0 -0 -0 -0 -1 -0 -0 -1 -3 -0 -0 -0 -0 -0
-18 -10 -0 -0 -10 -9 -4 -0 -0 -0 -0 -6 -0 -0 -2 -1 -28 -21 -0 -1 -0 -0 -0 -0 -0 -1 -0 -0 -0 -0 -0 -0 -0
-36 -34 -0 -13 -0 -7 -36 -6 -0 -0 -0 -0 -0 -0 -0 -5 -2 -54 -54 -0 -0 -1 -1 -0 -0 -0 -0 -0 -0 -0 -0 -0 -0
-49 -44 -31 -6 -0 -0 -18 -12 -41 -0 -0 -0 -0 -0 -19 -18 -2 -3 -0 -1 -1 -1 -1 -1 -0 -0 -0 -0 -0 -0 -0 -0 -0
Wind_Speed
11 11 11 12 12 12 13 14 15 16 16 16 17 17 17 17 18 19 19 20 21 22 23 23 26 27 28 29 31 33 35 36 38
10 10 10 10 11 12 12 13 14 14 15 15 16 16 16 16 17 17 18 18 19 21 22 23 23 25 26 27 29 31 32 34 36
9 9 8 9 10 10 11 12 13 13 14 15 15 15 15 15 15 16 16 17 17 18 20 22 22 22 24 25 27 29 30 31 33
8 8 7 8 8 9 10 11 12 12 13 14 15 15 15 14 14 14 15 15 16 17 18 19 21 22 23 24 25 26 26 28 30
8 7 6 7 7 8 9 9 10 10 11 13 14 14 14 13 14 13 13 14 15 15 16 17 19 20 22 24 25 25 25 25 27
8 8 7 7 7 7 7 7 9 9 10 11 12 13 14 12 13 12 12 13 14 14 15 15 17 18 20 21 23 24 24 24 25
10 10 9 8 7 6 6 6 6 6 9 10 11 13 12 12 11 11 11 11 12 13 13 14 16 17 19 20 22 23 23 24 25
9 10 10 10 8 8 7 6 6 10 10 11 13 11 12 12 11 11 10 10 10 11 12 13 14 16 17 19 21 22 23 23 24
11 12 11 11 10 9 8 9 9 11 11 10 11 11 11 11 10 9 8 8 9 9 10 12 13 15 16 17 19 21 21 23 24
14 14 13 13 12 11 10 9 10 9 11 10 10 11 10 9 8 7 6 6 7 8 9 10 11 13 15 16 18 20 21 22 23
15 15 15 15 15 14 13 12 11 10 11 11 10 10 9 8 6 5 4 5 6 7 8 9 10 12 13 15 16 18 20 21 23
15 16 17 17 16 13 12 11 11 15 11 11 10 9 7 7 5 5 3 3 5 5 6 7 9 10 12 13 15 17 19 20 22
14 16 18 17 16 14 14 12 13 14 14 14 14 8 7 7 7 6 5 3 4 4 5 6 7 9 10 12 13 15 17 19 21
15 16 17 16 17 15 14 16 14 15 13 12 16 13 9 9 8 8 6 4 3 4 4 5 6 8 9 10 12 14 16 18 20
12 14 15 16 16 15 15 14 14 14 15 13 12 17 9 11 9 9 8 7 4 4 4 5 6 7 8 9 11 13 15 17 19
10 12 12 14 17 17 16 15 14 15 13 13 10 12 12 13 13 12 11 10 8 5 6 6 7 7 8 9 10 12 14 16 18
6 7 7 11 16 17 16 13 14 15 7 16 10 13 13 18 16 13 14 13 10 9 8 9 9 8 8 10 12 13 14 16 18
3 5 2 3 11 19 15 12 13 12 14 9 10 16 21 15 18 17 16 15 13 12 12 12 12 11 11 11 13 14 15 17 18
2 2 3 4 2 20 12 15 11 6 9 7 16 20 13 15 18 22 20 17 17 15 15 14 13 13 14 15 15 15 16 17 19
10 9 9 6 2 5 10 8 6 6 6 8 12 14 16 11 8 14 13 14 14 18 17 16 16 15 15 15 15 16 17 18 19
Wind_Direction
52 56 55 57 46 33 23 18 17 16 17 15 15 13 11 18 22 26 26 28 29 28 30 29 29 29 30 31 32 33 34 35 37
62 59 51 47 43 38 30 20 17 17 15 16 11 6 358 15 19 22 24 23 27 29 29 30 29 28 29 30 31 33 33 34 36
42 45 39 41 34 31 29 27 25 21 17 14 9 4 359 10 11 12 16 16 22 25 25 25 27 28 28 29 31 32 32 33 34
36 36 32 29 25 24 29 30 25 24 22 14 9 3 347 3 5 7 14 18 21 24 25 26 29 31 31 31 30 28 27 29 32
0 4 11 14 20 16 12 19 20 21 20 15 13 13 5 2 359 359 9 16 19 23 25 24 25 27 29 31 31 30 27 24 28
344 339 343 349 356 1 7 6 5 7 13 11 11 7 360 1 360 359 9 15 16 20 24 25 25 25 26 29 31 30 28 26 25
323 324 322 328 332 336 340 350 359 10 351 351 356 348 359 354 1 358 5 10 13 22 28 28 31 34 34 34 35 34 31 30 29
317 320 315 314 314 318 320 322 324 325 331 330 328 337 343 346 351 353 357 16 26 28 32 33 34 36 36 35 35 34 33 31 29
312 310 309 307 304 303 299 299 305 306 312 320 325 326 333 336 346 358 3 17 29 36 35 36 37 37 37 33 35 33 31 30 30
305 303 303 299 295 291 287 289 299 300 300 311 318 316 323 334 337 347 4 18 37 39 37 32 34 35 37 33 33 34 30 29 28
303 300 297 295 292 287 281 284 288 291 293 295 311 314 317 329 329 339 358 22 29 32 37 33 30 32 34 34 31 31 31 29 28
305 301 297 292 289 285 282 280 281 281 289 290 297 307 311 312 324 314 344 22 18 26 27 29 30 27 29 30 30 29 28 27 25
304 300 297 293 284 280 276 271 276 278 276 285 286 296 303 295 290 290 296 335 352 6 16 20 22 27 27 26 26 25 24 22 21
307 301 298 294 285 278 271 274 271 268 275 283 284 283 289 278 278 276 282 298 327 332 358 1 14 18 23 22 21 19 17 16 15
309 303 295 290 286 279 273 269 272 268 269 268 279 286 271 263 267 268 273 278 309 324 326 330 344 359 5 12 13 11 9 9 8
311 305 295 286 278 274 271 269 268 271 263 248 275 284 283 266 264 263 263 269 280 290 299 313 315 334 340 348 356 358 359 359 359
317 312 296 283 273 270 263 256 267 271 226 262 262 266 277 266 266 264 262 263 271 278 285 292 300 312 326 330 335 339 344 348 351
327 319 153 181 269 263 266 256 261 258 246 240 280 264 270 265 268 262 263 260 266 273 278 284 291 297 308 315 322 328 334 339 342
77 82 122 124 260 260 258 254 257 236 205 229 280 282 271 265 263 260 259 261 262 268 272 279 286 290 297 303 313 322 328 333 335
132 115 121 132 182 239 248 242 235 220 212 206 274 285 273 269 265 258 262 264 265 265 270 276 282 290 297 304 313 318 324 328 332